EST,Max TemperatureF,Mean TemperatureF,Min TemperatureF,Max Dew PointF,MeanDew PointF,Min DewpointF,Max Humidity, Mean Humidity, Min Humidity, Max Sea Level PressureIn, Mean Sea Level PressureIn, Min Sea Level PressureIn, Max VisibilityMiles, Mean VisibilityMiles, Min VisibilityMiles, Max Wind SpeedMPH, Mean Wind SpeedMPH, Max Gust SpeedMPH,PrecipitationIn, CloudCover, Events, WindDirDegrees
2013-2-1,17,14,9,13,6,1,85,73,58,30.19,29.90,29.64,10,10,4,16,10,24,0.00,7,Snow,304
2013-2-2,18,14,9,16,10,1,93,84,65,30.19,30.08,29.99,10,4,0,18,8,24,0.00,8,Fog-Snow,184
2013-2-3,23,16,8,16,13,5,100,87,63,30.00,29.85,29.79,10,9,3,13,6,,0.00,6,Snow,99
2013-2-4,17,13,8,13,6,-5,100,80,37,29.96,29.85,29.81,10,8,1,16,4,23,0.00,6,Snow,243
2013-2-5,20,10,0,14,2,-8,85,64,40,30.02,29.94,29.86,10,10,10,8,3,,0.00,4,Snow,125
2013-2-6,24,17,9,23,15,-5,96,76,33,30.40,29.99,29.85,10,8,2,13,8,23,0.00,7,Snow,255
2013-2-7,15,8,2,5,0,-5,76,65,55,30.55,30.40,30.27,10,10,6,13,7,,0.00,7,Snow,60
2013-2-8,14,12,10,12,10,7,93,91,79,30.27,30.05,29.94,7,2,0,18,12,23,0.00,8,Fog-Snow,53
2013-2-9,19,9,-4,9,5,-9,92,79,49,30.43,30.21,30.04,10,6,2,20,14,24,0.00,7,Snow,19
2013-2-10,30,14,-3,12,1,-9,80,55,35,30.48,30.32,30.04,10,10,10,26,9,32,0.00,2,,146
2013-2-11,41,35,29,41,31,12,100,86,44,30.04,29.70,29.57,10,9,4,25,16,34,0.26,8,Rain-Snow,206
2013-2-12,33,31,29,32,30,23,100,94,75,29.91,29.71,29.63,10,4,1,25,15,36,0.02,8,Rain-Snow,253
2013-2-13,32,26,21,28,26,21,100,88,69,29.88,29.83,29.76,10,8,2,8,5,,0.03,7,Snow,219
2013-2-14,34,28,23,32,25,21,99,79,64,29.93,29.87,29.79,10,10,6,12,6,,0.00,7,Snow,187
2013-2-15,36,30,24,36,29,16,100,87,66,30.01,29.86,29.77,10,8,0,24,12,36,0.09,7,Fog-Rain-Snow,226
2013-2-16,24,16,8,16,8,-1,92,76,51,30.08,30.05,29.97,10,10,10,9,6,,0.00,5,Snow,17
2013-2-17,12,6,-1,1,-3,-5,88,70,52,30.10,29.97,29.91,10,10,10,10,6,16,0.00,0,,317
2013-2-18,20,10,0,8,-1,-7,80,61,40,30.29,30.20,30.03,10,10,10,18,7,,0.00,1,,218
2013-2-19,35,27,19,34,28,8,100,88,54,30.03,29.67,29.58,10,6,1,23,16,36,0.11,7,Rain-Snow,187
2013-2-20,26,20,15,25,18,10,100,83,54,29.94,29.79,29.67,10,7,1,24,15,37,0.00,7,Snow,262
2013-2-21,21,13,5,18,7,-2,93,80,62,30.43,30.09,29.94,10,7,1,15,9,21,0.00,8,Snow,294
2013-2-22,33,24,15,27,20,14,100,81,65,30.44,30.28,30.09,10,10,10,16,5,21,0.02,5,,145
2013-2-23,35,32,30,34,32,25,100,95,73,30.07,29.94,29.87,10,8,2,17,9,25,0.06,8,Rain-Snow,159
2013-2-24,32,30,28,31,29,25,100,92,75,29.99,29.89,29.84,10,8,2,10,6,17,0.00,8,Rain-Snow,253
2013-2-25,36,30,23,32,30,22,100,92,78,30.26,30.12,30.00,10,9,4,10,4,,0.02,7,Snow,255
2013-2-26,41,30,19,28,24,18,97,74,54,30.28,30.17,29.98,10,10,10,16,10,,0.00,2,,121
2013-2-27,35,34,32,36,33,28,100,98,78,29.96,29.66,29.55,10,7,2,18,10,,0.91,8,Rain-Snow,53
2013-2-28,35,33,31,36,33,31,100,99,93,29.68,29.60,29.51,10,7,1,12,5,17,0.12,8,Rain-Snow,241